Location: F?ge?el
(45.8833°N, 22.5833°E)
Time: 07:31:37
(UTC+00:00)

Cosmos 371 Rocket - Pass Details

Date: 17 November 2025
Orbit: 674 x 690 km, 74.0° (Epoch: 13 December)

Event Time Altitude Azimuth Distance (km) Brightness Sun altitude
Rises 16:26:15 0° 177° (S) 3,027 6.7 -15.6°
Reaches altitude 10° 16:28:40 10° 169° (S) 2,119 5.8 -16.0°
Maximum altitude 16:33:02 36° 103° (ESE) 1,076 3.8 -16.7°
Enters shadow 16:34:24 30° 68° (ENE) 1,222 4.0 -17.0°
